Location: Caseificio
(44.7500°N, 11.0500°E)
Time: 17:43:16
(UTC+00:00)

MSX - Pass Details

Date: 26 May 2022
Orbit: 895 x 905 km, 98.9° (Epoch: 07 July)

Event Time Altitude Azimuth Distance (km) Brightness Sun altitude
Rises 02:14:54 0° 11° (N) 3,534 8.0 -12.2°
Reaches altitude 10° 02:17:20 10° 8° (N) 2,590 7.1 -11.9°
Maximum altitude 02:23:01 61° 289° (WNW) 1,023 4.0 -11.2°
Enters shadow 02:28:12 12° 212° (SSW) 2,403 5.4 -10.5°
